Location: Village de las Huertas
(35.3014°N, 106.4095°W)
Time: 16:05:40
(UTC+00:00)

ADEOS Rocket - Pass Details

Date: 29 October 2020
Orbit: 859 x 1306 km, 98.7° (Epoch: 25 November)

Event Time Altitude Azimuth Distance (km) Brightness Sun altitude
Rises 12:43:03 0° 216° (SW) 3,447 5.6 -9.1°
Reaches altitude 10° 12:47:06 10° 246° (WSW) 2,492 4.7 -8.3°
Maximum altitude 12:49:13 12° 269° (W) 2,335 4.4 -7.9°
Drops below altitude 10° 12:51:22 10° 292° (WNW) 2,503 4.5 -7.5°
Sets 12:55:29 0° 322° (NW) 3,479 5.4 -6.6°
